GW4020 Weather Reports


time (UTC)temp
F
wind
direction
speed
knots
gust
knots
rain 1hr
in
rain 24hr
in
rain mn
in
humidity
%
barometer
mb
20260504090122 31 351 0.0 0.0 0.00 0.00 0.00 93 1012.0
20260504081552 31 351 0.0 0.0 0.00 0.00 0.00 94 1012.3
20260504081048 31 351 0.0 0.0 0.00 0.00 0.00 95 1012.1
20260504080545 30 351 0.0 0.0 0.00 0.00 0.00 94 1012.6
20260504050352 31 351 0.0 0.0 0.00 0.00 0.00 90 1012.3
20260504045849 31 351 0.0 0.0 0.00 0.00 0.00 90 1012.5
20260504045343 31 351 0.0 0.0 0.00 0.00 0.00 89 1012.5
20260504044841 32 351 0.0 0.0 0.00 0.00 0.00 89 1012.5
20260504044339 32 351 0.0 0.0 0.00 0.00 0.00 89 1012.5
20260504043836 32 351 0.0 0.0 0.00 0.00 0.00 89 1012.7
20260504043332 32 351 0.0 0.0 0.00 0.00 0.00 89 1012.6
20260504042830 32 351 0.0 0.0 0.00 0.00 0.00 89 1012.6
20260504042326 32 351 0.0 0.0 0.00 0.00 0.00 89 1012.5
20260504041822 32 351 0.0 0.0 0.00 0.00 0.00 89 1012.5
20260504041318 32 351 0.0 0.0 0.00 0.00 0.00 89 1012.5
20260504040814 32 351 0.0 0.0 0.00 0.00 0.00 89 1012.3
20260504040312 32 351 0.0 0.0 0.00 0.00 0.00 89 1012.5
20260504035808 32 351 0.0 0.0 0.00 0.00 0.00 88 1012.6
20260504035305 32 351 0.0 0.0 0.00 0.00 0.00 88 1012.8
20260504034802 33 351 0.0 0.0 0.00 0.00 0.00 87 1012.5
20260504034300 33 351 0.0 0.0 0.00 0.00 0.00 86 1012.6
20260504033757 33 351 0.0 0.0 0.00 0.00 0.00 86 1012.5
20260504033255 33 351 0.0 0.0 0.00 0.00 0.00 86 1012.7
20260504032752 33 351 0.0 0.0 0.00 0.00 0.00 86 1012.7
20260504032249 33 351 0.0 0.0 0.00 0.00 0.00 86 1012.6
20260504031745 33 351 0.0 0.0 0.00 0.00 0.00 86 1012.7
20260504031243 34 351 0.0 0.0 0.00 0.00 0.00 85 1012.7
20260504030738 34 351 0.0 0.0 0.00 0.00 0.00 84 1012.6
20260504030236 34 351 0.0 0.0 0.00 0.00 0.00 84 1012.6
20260504025732 34 351 0.0 0.0 0.00 0.00 0.00 83 1012.7
20260504025229 34 351 0.0 0.0 0.00 0.00 0.00 83 1012.7
20260504024726 35 351 0.0 0.0 0.00 0.00 0.00 83 1012.7
20260504024222 35 351 0.0 0.0 0.00 0.00 0.00 81 1012.6
20260504023720 36 351 0.0 0.0 0.00 0.00 0.00 79 1012.7
20260504023215 36 351 0.0 0.0 0.00 0.00 0.00 79 1012.8
20260504022712 36 351 0.0 0.0 0.00 0.00 0.00 79 1012.6
20260504022208 36 351 0.0 0.0 0.00 0.00 0.00 78 1012.6
20260504021706 37 351 0.0 0.0 0.00 0.00 0.00 77 1012.6
20260504021202 37 351 0.0 0.0 0.00 0.00 0.00 76 1012.6
20260504020659 37 351 0.0 0.0 0.00 0.00 0.00 76 1012.7
20260504020155 37 351 0.0 0.0 0.00 0.00 0.00 75 1012.6
20260504015652 38 351 0.0 0.0 0.00 0.00 0.00 75 1012.7
20260504015148 38 351 0.0 0.0 0.00 0.00 0.00 75 1012.6
20260504014644 38 351 0.0 0.0 0.00 0.00 0.00 75 1012.5
20260504014141 38 350 0.0 0.0 0.00 0.00 0.00 75 1012.6
20260504013639 39 350 0.0 0.0 0.00 0.00 0.00 75 1012.3
20260504013136 39 351 0.0 0.0 0.00 0.00 0.00 75 1012.3
20260504012633 39 351 0.0 0.0 0.00 0.00 0.00 75 1012.5
20260504012131 40 351 0.0 0.0 0.00 0.00 0.00 72 1012.3
20260504011627 41 351 0.0 0.0 0.00 0.00 0.00 70 1012.3
20260504011124 41 351 0.0 0.0 0.00 0.00 0.00 70 1012.3
20260504010620 41 351 0.0 0.0 0.00 0.00 0.00 67 1012.1
20260504010116 42 351 0.0 0.0 0.00 0.00 0.00 66 1012.0
20260504005613 42 350 0.0 0.0 0.00 0.00 0.00 67 1012.0
20260504005110 43 350 0.0 0.0 0.00 0.00 0.00 64 1012.0
20260504004608 43 350 0.0 0.0 0.00 0.00 0.00 64 1012.0
20260504004105 44 349 0.0 0.0 0.00 0.00 0.00 62 1011.9
20260504003600 44 353 0.0 0.0 0.00 0.00 0.00 64 1011.8
20260504003057 44 353 0.0 0.0 0.00 0.00 0.00 63 1011.8
20260504002554 44 354 0.0 0.0 0.00 0.00 0.00 62 1011.6
20260504002052 45 355 0.0 0.0 0.00 0.00 0.00 60 1011.7
20260504001550 46 357 0.0 0.0 0.00 0.00 0.00 58 1011.6
20260504001045 46 358 0.0 0.0 0.00 0.00 0.00 57 1011.6
20260504000543 47 355 0.0 0.0 0.00 0.00 0.00 57 1011.6
20260504000040 49 329 0.0 0.0 0.00 0.00 0.00 55 1011.6
20260503235538 50 354 0.0 0.0 0.00 0.00 0.00 53 1011.3
20260503235035 51 321 0.9 1.7 0.00 0.00 0.00 49 1011.5
20260503234532 51 301 0.9 1.7 0.00 0.00 0.00 47 1011.4
20260503234031 51 239 3.5 3.5 0.00 0.00 0.00 44 1011.4
20260503233527 51 297 1.7 1.7 0.00 0.00 0.00 45 1011.5
20260503233023 52 325 1.7 1.7 0.00 0.00 0.00 45 1011.3
20260503232520 52 282 1.7 1.7 0.00 0.00 0.00 44 1011.4
20260503232017 52 310 1.7 1.7 0.00 0.00 0.00 44 1011.3
20260503231515 52 337 0.0 0.9 0.00 0.00 0.00 46 1011.3
20260503231012 52 336 2.6 2.6 0.00 0.00 0.00 43 1011.4
20260503230508 52 311 0.9 1.7 0.00 0.00 0.00 44 1011.3
20260503230006 52 281 3.5 3.5 0.00 0.00 0.00 43 1011.1
20260503225503 52 301 1.7 1.7 0.00 0.00 0.00 43 1011.3
20260503224958 53 325 4.3 7.0 0.00 0.00 0.00 43 1011.2
20260503224455 53 284 2.6 3.5 0.00 0.00 0.00 42 1011.2
20260503223953 53 307 1.7 1.7 0.00 0.00 0.00 43 1011.0
20260503223451 53 250 2.6 2.6 0.00 0.00 0.00 43 1011.3
20260503222946 53 325 0.0 0.9 0.00 0.00 0.00 46 1011.2
20260503222445 53 353 2.6 2.6 0.00 0.00 0.00 44 1011.2
20260503221942 53 344 3.5 5.2 0.00 0.00 0.00 44 1011.3
20260503221440 53 331 3.5 5.2 0.00 0.00 0.00 44 1011.2
20260503220937 53 296 1.7 2.6 0.00 0.00 0.00 42 1011.3
20260503220433 53 312 1.7 1.7 0.00 0.00 0.00 43 1011.4
20260503215931 52 265 3.5 3.5 0.00 0.00 0.00 44 1011.4
20260503215427 52 240 1.7 2.6 0.00 0.00 0.00 44 1011.4
20260503214925 52 331 2.6 5.2 0.00 0.00 0.00 46 1011.4
20260503214423 52 335 2.6 3.5 0.00 0.00 0.00 45 1011.4
20260503213920 53 323 2.6 3.5 0.00 0.00 0.00 43 1011.3
20260503213418 53 352 3.5 5.2 0.00 0.00 0.00 44 1011.2
20260503212914 53 295 2.6 3.5 0.00 0.00 0.00 43 1011.1
20260503212412 53 341 4.3 6.1 0.00 0.00 0.00 42 1011.2
20260503211909 53 328 9.6 12.2 0.00 0.00 0.00 43 1011.1
20260503211405 52 310 7.0 11.3 0.00 0.00 0.00 43 1011.2
20260503210901 53 342 5.2 6.1 0.00 0.00 0.00 43 1010.8
20260503210358 53 337 4.3 5.2 0.00 0.00 0.00 43 1011.2
20260503205853 53 296 1.7 2.6 0.00 0.00 0.00 44 1011.2
20260503205350 53 313 6.1 7.8 0.00 0.00 0.00 43 1011.1
20260503204846 53 346 5.2 7.8 0.00 0.00 0.00 44 1011.3
20260503204343 52 337 3.5 5.2 0.00 0.00 0.00 43 1011.2
20260503203841 52 316 7.0 7.8 0.00 0.00 0.00 42 1011.1
20260503203338 52 267 3.5 3.5 0.00 0.00 0.00 42 1011.2
20260503202835 52 339 2.6 3.5 0.00 0.00 0.00 42 1011.2
20260503202333 52 330 6.1 7.8 0.00 0.00 0.00 42 1011.3
20260503201831 53 348 7.0 8.7 0.00 0.00 0.00 41 1011.3
20260503201328 53 267 6.1 7.0 0.00 0.00 0.00 41 1011.3
20260503200825 52 263 5.2 6.1 0.00 0.00 0.00 42 1011.3
20260503200321 53 346 7.8 8.7 0.00 0.00 0.00 40 1011.3
20260503195819 53 275 6.1 7.8 0.00 0.00 0.00 40 1011.5
20260503195315 54 306 4.3 6.1 0.00 0.00 0.00 40 1011.0
20260503194813 53 268 6.1 7.8 0.00 0.00 0.00 40 1011.3
20260503194308 52 348 6.1 7.0 0.00 0.00 0.00 41 1011.3
20260503193804 53 348 7.0 9.6 0.00 0.00 0.00 41 1011.5
20260503193300 52 269 3.5 3.5 0.00 0.00 0.00 39 1011.4
20260503192756 52 255 3.5 5.2 0.00 0.00 0.00 42 1011.5
20260503192252 53 261 5.2 8.7 0.00 0.00 0.00 43 1011.5
20260503191749 53 310 9.6 11.3 0.00 0.00 0.00 39 1011.5
20260503191246 53 332 10.4 13.9 0.00 0.00 0.00 39 1011.6
20260503190742 53 239 5.2 7.8 0.00 0.00 0.00 40 1011.5
20260503190239 52 286 3.5 3.5 0.00 0.00 0.00 38 1011.6
20260503185737 52 285 5.2 7.0 0.00 0.00 0.00 39 1011.7
20260503185232 53 270 5.2 6.1 0.00 0.00 0.00 39 1011.7
20260503184727 52 341 4.3 6.1 0.00 0.00 0.00 40 1011.9
20260503184223 52 272 7.0 8.7 0.00 0.00 0.00 37 1012.0
20260503183720 52 276 4.3 5.2 0.00 0.00 0.00 37 1012.1
20260503183217 51 334 0.9 0.9 0.00 0.00 0.00 42 1012.0
20260503182716 51 0 2.6 3.5 0.00 0.00 0.00 38 1012.0
20260503182214 52 337 4.3 7.0 0.00 0.00 0.00 38 1011.9
20260503181710 52 298 5.2 7.0 0.00 0.00 0.00 39 1012.1
20260503181207 51 276 6.1 8.7 0.00 0.00 0.00 39 1012.1
20260503180703 50 15 6.1 7.0 0.00 0.00 0.00 39 1012.1
20260503180202 51 267 3.5 3.5 0.00 0.00 0.00 40 1012.0
20260503175658 51 289 3.5 3.5 0.00 0.00 0.00 40 1012.3
20260503175156 51 266 2.6 3.5 0.00 0.00 0.00 39 1012.3
20260503174652 50 251 5.2 7.0 0.00 0.00 0.00 40 1012.3
20260503174150 49 304 5.2 7.8 0.00 0.00 0.00 43 1012.6
20260503173644 49 219 3.5 5.2 0.00 0.00 0.00 43 1012.6
20260503173141 50 329 6.1 8.7 0.00 0.00 0.00 40 1012.6
20260503172638 50 326 3.5 5.2 0.00 0.00 0.00 41 1012.7
20260503172130 48 324 6.1 8.7 0.00 0.00 0.00 43 1012.7
20260503171626 48 300 3.5 3.5 0.00 0.00 0.00 45 1012.8
20260503171123 47 330 8.7 13.0 0.00 0.00 0.00 44 1012.9
20260503170621 46 353 7.0 8.7 0.00 0.00 0.00 45 1012.9
20260503170117 47 247 7.0 11.3 0.00 0.00 0.00 44 1013.1
20260503151012 43 343 11.3 13.0 0.00 0.00 0.00 48 1013.7
20260503150508 44 265 3.5 3.5 0.00 0.00 0.00 47 1013.5
20260503131355 41 339 2.6 3.5 0.00 0.00 0.00 49 1013.9
20260503130852 40 336 7.0 7.8 0.00 0.00 0.00 52 1014.0
20260503130350 40 354 3.5 3.5 0.00 0.00 0.00 54 1013.8
20260503110750 34 325 0.9 1.7 0.00 0.00 0.00 81 1013.2
20260503110247 34 311 0.9 1.7 0.00 0.00 0.00 82 1013.3
20260503100213 33 328 0.9 0.9 0.00 0.00 0.00 85 1012.6